Weather in Bazitamak

Russia / Republic of Bashkortostan     55°38′49″N   54°32′04″E
temp.,
°C
wind,
m/s
gust,
m/s
humid.,
%
clouds,
%
prec.,
mm/h
press.,
hPa
HPBL,
m
3 march, wed
wed323:00−1sw61196100 1.4 998464
02:00−2wsw5109496 0.4 998375
05:00−4wsw599595 0.4 999359
08:00−4wsw5995100 0.3 998349
11:00−4w479495 0.5 999347
14:00−3wsw469396 0.0 999395
17:00−2wsw479598 0.4 999473
20:00−4wsw489699 0.4 999268
4 march, thu
thu423:00−4wsw489699 1.2 1001356
02:00−7wnw61094100 0.8 1000498
05:00−11w5109697 0.9 1002232
08:00−13wsw479590 0.0 1001133
11:00−8sw6119493 0.4 1001515
14:00−5sw61093100 0.4 998621
17:00−4sw81393100 1.3 997879
20:00−3sw81595100 0.6 995772
5 march, fri
fri523:00−1wsw101688100 2.2 994921
02:00−5wsw7158767 0.1 995421
05:00−6wsw5129374 0.1 998386
08:00−8wsw3796100 0.0 999141
11:00−6w2395100 0.1 1000225
14:00−4wnw1193100 0.8 1000242
17:00−4n3596100 1.5 1000372
20:00−6nnw4892100 0.6 1000285
6 march, sat
sat623:00−12nw489295 0.6 1005144
02:00−17wnw46960 0.0 101098
05:00−19w34985 0.0 101269
08:00−20w349969 0.0 101442
11:00−17wsw349566 0.0 1014180
14:00−12wsw228773 0.0 1013283
17:00−12sse229085 0.0 1012195
20:00−17sse22948 0.0 101120
7 march, sun
sun723:00−19s11965 0.0 101120
02:00−17s119191 0.0 100920
05:00−17ssw128996 0.0 100920
08:00−17ssw2390100 0.0 100821
11:00−14sw4693100 0.0 1009272
14:00−12wsw579196 0.1 1010476
17:00−12sw478898 0.1 1010590
20:00−16s469148 0.0 101092